Terug naar catalogus

FREGAT DEB

ActiefLEO
NORAD 45847·DEBRIS·🇷🇺 Russia

Gelanceerd Jul 18, 2011 vanaf Baikonur Cosmodrome

Loading…

Volgende Passages (komende 24 uur)

TLE

VersSource: Space-Track

Epoch: Sep 14, 2026, 01:27 UTC

1 45847U 11037CH  26257.06096863  .00131566  00000-0  67506-2 0  9998
2 45847  51.3957 258.0823 0808099   1.6436 358.6865 13.84642821274476

Volg FREGAT DEB in realtime met AllMySat

Download on the App Store